Location: Oshawa
(43.9000°N, 78.8670°W)
Time: 08:37:55
(UTC-04:00)

Transit 2A Rocket - Visible Passes

Search period start: 29 August 2015 00:00
Search period end: 08 September 2015 00:00
Orbit: 592 x 913 km, 66.7° (Epoch: 28 August)

Date Brightness Start Highest point End Pass type
(mag) Time Alt. Az. Time Alt. Az. Time Alt. Az.
29 Aug 7.0 00:12:18 10° NW 00:13:39 19° NW 00:13:39 19° NW visible
29 Aug 7.0 21:49:49 10° NNE 21:50:52 11° NNE 21:52:03 10° NE visible
29 Aug 6.4 23:30:10 10° NNW 23:32:24 28° NNW 23:32:24 28° NNW visible
30 Aug 6.0 22:48:12 10° NNW 22:51:11 30° NNE 22:51:11 30° NNE visible
31 Aug 7.6 00:31:04 10° NW 00:31:06 10° NW 00:31:06 10° NW visible
31 Aug 6.2 22:06:25 10° N 22:09:52 22° NE 22:10:00 21° NE visible
31 Aug 7.0 23:48:30 10° NW 23:49:55 19° NW 23:49:55 19° NW visible
01 Sep 6.6 21:24:56 10° N 21:27:18 14° NE 21:28:50 12° ENE visible
01 Sep 6.1 23:06:13 10° NNW 23:08:45 34° NNW 23:08:45 34° NNW visible
02 Sep 5.3 22:24:08 10° NNW 22:27:37 43° NNE 22:27:37 43° NNE visible
03 Sep 5.6 21:42:14 10° NNW 21:46:07 29° NE 21:46:32 29° ENE visible
03 Sep 6.9 23:24:49 10° NW 23:26:27 19° WNW 23:26:27 19° WNW visible
04 Sep 6.3 21:00:31 10° N 21:03:40 19° NE 21:05:28 15° ENE visible
04 Sep 5.7 22:42:21 10° NW 22:45:24 40° WNW 22:45:24 40° WNW visible
05 Sep 6.7 20:19:12 10° N 20:21:04 12° NE 20:23:03 10° ENE visible
05 Sep 4.4 22:00:09 10° NNW 22:04:23 75° NNE 22:04:23 75° NNE visible
06 Sep 5.1 21:18:07 10° NNW 21:22:19 42° NE 21:23:24 35° E visible
06 Sep 6.9 23:01:23 10° WNW 23:03:20 18° W 23:03:20 18° W visible
07 Sep 5.8 20:36:16 10° N 20:39:57 26° NE 20:42:29 16° E visible
07 Sep 5.7 22:18:37 10° NW 22:22:25 36° WSW 22:22:25 36° WSW visible
